DW2513 Weather Reports


Display with metric or nautical units.
time (UTC)temp
F
wind
direction
speed
MPH
gust
MPH
rain 1hr
in
rain 24hr
in
rain mn
in
humidity
%
barometer
mb
20260505062804 53 292 0.0 0.0 0.00 0.00 0.00 57 1004.6
20260505061804 54 292 0.0 0.0 0.00 0.00 0.00 56 1004.6
20260505060805 54 292 0.0 0.0 0.00 0.00 0.00 56 1004.6
20260505060304 54 292 0.0 0.0 0.00 0.00 0.00 56 1004.6
20260505055305 54 292 0.0 0.0 0.00 0.01 0.00 55 1004.6
20260505054305 54 292 0.0 0.0 0.00 0.01 0.00 56 1004.1
20260505053805 54 292 0.0 0.0 0.00 0.01 0.00 55 1004.1
20260505052305 54 292 0.0 0.0 0.00 0.01 0.00 55 1004.1
20260505050805 55 291 0.0 0.0 0.00 0.01 0.00 54 1004.1
20260505050305 55 291 0.0 0.0 0.00 0.01 0.00 55 1004.1
20260505040821 57 259 0.0 0.0 0.00 0.01 0.00 49 1004.1
20260505032804 57 80 0.0 0.0 0.00 0.01 0.01 48 1003.5
20260505032305 57 80 0.0 0.0 0.00 0.01 0.01 48 1003.5
20260505030804 57 43 0.0 0.0 0.00 0.01 0.01 46 1003.5
20260505023804 58 22 0.0 0.0 0.00 0.01 0.01 43 1003.5
20260505022804 58 37 0.0 0.0 0.00 0.01 0.01 43 1003.5
20260505022305 59 37 0.0 0.0 0.00 0.01 0.01 42 1003.5
20260505020804 59 0 0.0 0.0 0.00 0.01 0.01 41 1003.5
20260505015804 59 0 0.0 0.0 0.00 0.01 0.01 40 1003.2
20260505014804 60 0 0.0 0.0 0.00 0.01 0.01 40 1003.2
20260505014304 60 0 0.0 0.0 0.00 0.01 0.01 40 1003.2
20260505013304 60 0 0.0 0.0 0.00 0.01 0.01 38 1003.2
20260505012305 60 0 0.0 0.0 0.00 0.01 0.01 38 1003.2
20260505011804 61 0 0.0 0.0 0.00 0.01 0.01 37 1003.2
20260505011306 61 0 0.0 0.0 0.00 0.01 0.01 37 1003.2
20260505010805 61 0 0.0 0.0 0.00 0.01 0.01 37 1003.1
20260505004304 62 0 0.0 0.0 0.00 0.01 0.01 36 1002.9
20260505003304 62 0 0.0 0.0 0.00 0.01 0.01 35 1002.7
20260505001804 63 0 0.0 0.0 0.00 0.01 0.01 34 1002.6
20260505001304 63 0 0.0 0.0 0.00 0.01 0.01 34 1002.5
20260505000805 63 0 0.0 0.0 0.00 0.01 0.01 34 1002.5
20260504234304 63 0 0.0 3.0 0.00 0.01 0.01 36 1001.5
20260504233804 63 224 0.0 0.0 0.00 0.01 0.01 35 1001.5
20260504231805 64 224 0.0 3.0 0.00 0.01 0.01 33 1001.5
20260504231304 64 331 0.0 0.0 0.00 0.01 0.01 35 1001.5
20260504230804 64 303 0.0 0.0 0.00 0.01 0.01 34 1001.5
20260504223804 67 51 0.0 3.0 0.00 0.01 0.01 32 1001.3
20260504223304 67 53 0.0 0.0 0.00 0.01 0.01 31 1001.3
20260504222305 68 184 1.0 6.0 0.00 0.01 0.01 28 1001.3
20260504221304 68 88 0.0 3.0 0.00 0.01 0.01 27 1001.3
20260504220804 68 39 0.0 6.0 0.00 0.01 0.01 27 1001.3
20260504220305 68 144 0.0 1.0 0.00 0.01 0.01 27 1002.1
20260504212804 69 148 0.0 8.0 0.00 0.01 0.01 26 1002.1
20260504211804 69 281 1.0 6.0 0.00 0.01 0.01 25 1002.1
20260504211304 69 25 2.0 5.0 0.00 0.01 0.01 25 1002.1
20260504210305 69 75 0.0 6.0 0.00 0.01 0.01 26 1002.1
20260504205804 69 59 0.0 7.0 0.00 0.01 0.01 25 1002.1
20260504205304 69 243 1.0 7.0 0.00 0.01 0.01 25 1002.1
20260504204304 70 147 1.0 6.0 0.00 0.01 0.01 25 1002.1
20260504201304 69 117 0.0 1.0 0.00 0.01 0.01 25 1002.1
20260504200304 69 42 1.0 9.0 0.00 0.01 0.01 25 1002.1
20260504194804 69 225 1.0 9.0 0.00 0.01 0.01 26 1002.1
20260504194304 69 325 1.0 14.0 0.00 0.01 0.01 26 1002.1
20260504193804 69 131 2.0 5.0 0.00 0.01 0.01 26 1002.1
20260504192305 68 122 0.0 3.0 0.00 0.01 0.01 28 1002.1
20260504190305 68 117 2.0 5.0 0.00 0.01 0.01 26 1002.1
20260504184804 68 142 1.0 9.0 0.00 0.01 0.01 26 1002.5
20260504184305 68 54 0.0 3.0 0.00 0.01 0.01 26 1002.5
20260504183804 68 191 1.0 3.0 0.00 0.01 0.01 27 1002.5
20260504183305 68 123 2.0 9.0 0.00 0.01 0.01 26 1002.5
20260504182805 68 95 3.0 9.0 0.00 0.01 0.01 27 1002.5
20260504182304 68 176 1.0 7.0 0.00 0.01 0.01 27 1002.5
20260504180804 66 65 2.0 6.0 0.00 0.01 0.01 28 1002.5
20260504175304 64 114 1.0 9.0 0.00 0.01 0.01 28 1002.6
20260504173805 64 23 0.0 3.0 0.00 0.01 0.01 30 1002.6
20260504172804 64 196 0.0 2.0 0.00 0.01 0.01 29 1002.6
20260504172304 64 141 0.0 2.0 0.00 0.01 0.01 28 1002.6
20260504171804 65 137 0.0 3.0 0.00 0.01 0.01 29 1002.6
20260504170804 64 122 1.0 8.0 0.00 0.01 0.01 29 1002.6
20260504160305 62 113 1.0 9.0 0.00 0.01 0.01 31 1003.3
20260504130804 56 211 0.0 3.0 0.00 0.01 0.01 38 1004.7
20260504100304 41 127 0.0 0.0 0.00 0.01 0.01 76 1005.1
20260504081304 39 127 0.0 0.0 0.00 0.01 0.01 72 1005.3
20260504080805 38 127 0.0 0.0 0.00 0.01 0.01 72 1005.3
20260504070305 37 127 0.0 0.0 0.00 0.01 0.01 74 1005.2